Year,Month,Day,Hour,Minute,Value (Times are PST for temperature in C)
2005,07,11,00,00,11.80
2005,07,11,00,01,11.80
2005,07,11,00,02,11.80
2005,07,11,00,03,11.80
2005,07,11,00,04,11.80
2005,07,11,00,05,11.80
2005,07,11,00,06,11.80
2005,07,11,00,07,11.80
2005,07,11,00,08,11.80
2005,07,11,00,09,11.80
2005,07,11,00,10,11.80
2005,07,11,00,11,11.80
2005,07,11,00,12,11.90
2005,07,11,00,13,11.90
2005,07,11,00,14,11.90
2005,07,11,00,15,11.90
2005,07,11,00,16,11.90
2005,07,11,00,17,12.00
2005,07,11,00,18,12.00
2005,07,11,00,19,12.00
2005,07,11,00,20,12.10
2005,07,11,00,21,12.10
2005,07,11,00,22,12.10
2005,07,11,00,23,12.10
2005,07,11,00,24,12.10
2005,07,11,00,25,12.10
2005,07,11,00,26,12.10
2005,07,11,00,27,12.10
2005,07,11,00,28,12.10
2005,07,11,00,29,12.10
2005,07,11,00,30,12.10
2005,07,11,00,31,12.00
2005,07,11,00,32,12.00
2005,07,11,00,33,12.00
2005,07,11,00,34,12.00
2005,07,11,00,35,11.90
2005,07,11,00,36,11.90
2005,07,11,00,37,11.80
2005,07,11,00,38,11.80
2005,07,11,00,39,11.80
2005,07,11,00,40,11.80
2005,07,11,00,41,11.80
2005,07,11,00,42,11.80
2005,07,11,00,43,11.80
2005,07,11,00,44,11.70
2005,07,11,00,45,11.70
2005,07,11,00,46,11.70
2005,07,11,00,47,11.70
2005,07,11,00,48,11.70
2005,07,11,00,49,11.60
2005,07,11,00,50,11.60
2005,07,11,00,51,11.60
2005,07,11,00,52,11.60
2005,07,11,00,53,11.60
2005,07,11,00,54,11.60
2005,07,11,00,55,11.60
2005,07,11,00,56,11.60
2005,07,11,00,57,11.60
2005,07,11,00,58,11.60
2005,07,11,00,59,11.60
2005,07,11,01,00,11.60
2005,07,11,01,01,11.60
2005,07,11,01,02,11.60
2005,07,11,01,03,11.60
2005,07,11,01,04,11.60
2005,07,11,01,05,11.60
2005,07,11,01,06,11.60
2005,07,11,01,07,11.40
2005,07,11,01,08,11.40
2005,07,11,01,09,11.40
2005,07,11,01,10,11.40
2005,07,11,01,11,11.40
2005,07,11,01,12,11.40
2005,07,11,01,13,11.40
2005,07,11,01,14,11.40
2005,07,11,01,15,11.40
2005,07,11,01,16,11.40
2005,07,11,01,17,11.40
2005,07,11,01,18,11.40
2005,07,11,01,19,11.40
2005,07,11,01,20,11.40
2005,07,11,01,21,11.40
2005,07,11,01,22,11.40
2005,07,11,01,23,11.40
2005,07,11,01,24,11.40
2005,07,11,01,25,11.40
2005,07,11,01,26,11.40
2005,07,11,01,27,11.40
2005,07,11,01,28,11.40
2005,07,11,01,29,11.40
2005,07,11,01,30,11.40
2005,07,11,01,31,11.40
2005,07,11,01,32,11.40
2005,07,11,01,33,11.40
2005,07,11,01,34,11.50
2005,07,11,01,35,11.60
2005,07,11,01,36,11.60
2005,07,11,01,37,11.60
2005,07,11,01,38,11.60
2005,07,11,01,39,11.60
2005,07,11,01,40,11.60
2005,07,11,01,41,11.60
2005,07,11,01,42,11.60
2005,07,11,01,43,11.60
2005,07,11,01,44,11.60
2005,07,11,01,45,11.60
2005,07,11,01,46,11.60
2005,07,11,01,47,11.60
2005,07,11,01,48,11.70
2005,07,11,01,49,11.70
2005,07,11,01,50,11.70
2005,07,11,01,51,11.70
2005,07,11,01,52,11.70
2005,07,11,01,53,11.80
2005,07,11,01,54,11.80
2005,07,11,01,55,11.80
2005,07,11,01,56,11.80
2005,07,11,01,57,11.80
2005,07,11,01,58,11.80
2005,07,11,01,59,11.90
2005,07,11,02,00,11.90
2005,07,11,02,01,11.90
2005,07,11,02,02,11.90
2005,07,11,02,03,11.90
2005,07,11,02,04,11.90
2005,07,11,02,05,11.90
2005,07,11,02,06,12.00
2005,07,11,02,07,12.00
2005,07,11,02,08,12.00
2005,07,11,02,09,12.00
2005,07,11,02,10,12.00
2005,07,11,02,11,12.00
2005,07,11,02,12,12.00
2005,07,11,02,13,12.00
2005,07,11,02,14,12.00
2005,07,11,02,15,12.00
2005,07,11,02,16,12.00
2005,07,11,02,17,12.10
2005,07,11,02,18,12.10
2005,07,11,02,19,12.10
2005,07,11,02,20,12.10
2005,07,11,02,21,12.10
2005,07,11,02,22,12.20
2005,07,11,02,23,12.20
2005,07,11,02,24,12.20
2005,07,11,02,25,12.20
2005,07,11,02,26,12.30
2005,07,11,02,27,12.30
2005,07,11,02,28,12.30
2005,07,11,02,29,12.30
2005,07,11,02,30,12.30
2005,07,11,02,31,12.30
2005,07,11,02,32,12.30
2005,07,11,02,33,12.30
2005,07,11,02,34,12.30
2005,07,11,02,35,12.40
2005,07,11,02,36,12.40
2005,07,11,02,37,12.40
2005,07,11,02,38,12.40
2005,07,11,02,39,12.40
2005,07,11,02,40,12.50
2005,07,11,02,41,12.50
2005,07,11,02,42,12.50
2005,07,11,02,43,12.50
2005,07,11,02,44,12.60
2005,07,11,02,45,12.60
2005,07,11,02,46,12.60
2005,07,11,02,47,12.60
2005,07,11,02,48,12.70
2005,07,11,02,49,12.70
2005,07,11,02,50,12.70
2005,07,11,02,51,12.70
2005,07,11,02,52,12.80
2005,07,11,02,53,12.80
2005,07,11,02,54,12.80
2005,07,11,02,55,12.80
2005,07,11,02,56,12.80
2005,07,11,02,57,12.80
2005,07,11,02,58,12.80
2005,07,11,02,59,12.80
2005,07,11,03,00,12.80
2005,07,11,03,01,12.90
2005,07,11,03,02,12.90
2005,07,11,03,03,12.90
2005,07,11,03,04,12.90
2005,07,11,03,05,12.90
2005,07,11,03,06,12.90
2005,07,11,03,07,12.90
2005,07,11,03,08,12.90
2005,07,11,03,09,12.90
2005,07,11,03,10,12.90
2005,07,11,03,11,12.90
2005,07,11,03,12,12.90
2005,07,11,03,13,12.90
2005,07,11,03,14,12.90
2005,07,11,03,15,12.90
2005,07,11,03,16,12.90
2005,07,11,03,17,12.90
2005,07,11,03,18,12.90
2005,07,11,03,19,12.90
2005,07,11,03,20,12.90
2005,07,11,03,21,12.90
2005,07,11,03,22,12.90
2005,07,11,03,23,12.90
2005,07,11,03,24,12.90
2005,07,11,03,25,12.90
2005,07,11,03,26,12.90
2005,07,11,03,27,12.90
2005,07,11,03,28,12.90
2005,07,11,03,29,12.90
2005,07,11,03,30,12.90
2005,07,11,03,31,12.90
2005,07,11,03,32,12.90
2005,07,11,03,33,12.90
2005,07,11,03,34,12.90
2005,07,11,03,35,13.00
2005,07,11,03,36,13.00
2005,07,11,03,37,13.00
2005,07,11,03,38,13.00
2005,07,11,03,39,13.00
2005,07,11,03,40,13.00
2005,07,11,03,41,13.00
2005,07,11,03,42,13.00
2005,07,11,03,43,13.00
2005,07,11,03,44,13.00
2005,07,11,03,45,13.00
2005,07,11,03,46,13.00
2005,07,11,03,47,13.00
2005,07,11,03,48,13.00
2005,07,11,03,49,13.00
2005,07,11,03,50,13.00
2005,07,11,03,51,13.00
2005,07,11,03,52,13.00
2005,07,11,03,53,13.00
2005,07,11,03,54,13.10
2005,07,11,03,55,13.10
2005,07,11,03,56,13.10
2005,07,11,03,57,13.10
2005,07,11,03,58,13.10
2005,07,11,03,59,13.10
2005,07,11,04,00,13.10
2005,07,11,04,01,13.10
2005,07,11,04,02,13.20
2005,07,11,04,03,13.20
2005,07,11,04,04,13.20
2005,07,11,04,05,13.20
2005,07,11,04,06,13.20
2005,07,11,04,07,13.20
2005,07,11,04,08,13.20
2005,07,11,04,09,13.20
2005,07,11,04,10,13.20
2005,07,11,04,11,13.20
2005,07,11,04,12,13.30
2005,07,11,04,13,13.30
2005,07,11,04,14,13.30
2005,07,11,04,15,13.30
2005,07,11,04,16,13.30
2005,07,11,04,17,13.30
2005,07,11,04,18,13.30
2005,07,11,04,19,13.30
2005,07,11,04,20,13.30
2005,07,11,04,21,13.30
2005,07,11,04,22,13.30
2005,07,11,04,23,13.40
2005,07,11,04,24,13.40
2005,07,11,04,25,13.40
2005,07,11,04,26,13.40
2005,07,11,04,27,13.50
2005,07,11,04,28,13.50
2005,07,11,04,29,13.50
2005,07,11,04,30,13.50
2005,07,11,04,31,13.60
2005,07,11,04,32,13.60
2005,07,11,04,33,13.60
2005,07,11,04,34,13.60
2005,07,11,04,35,13.60
2005,07,11,04,36,13.60
2005,07,11,04,37,13.60
2005,07,11,04,38,13.60
2005,07,11,04,39,13.70
2005,07,11,04,40,13.70
2005,07,11,04,41,13.70
2005,07,11,04,42,13.70
2005,07,11,04,43,13.70
2005,07,11,04,44,13.70
2005,07,11,04,45,13.70
2005,07,11,04,46,13.70
2005,07,11,04,47,13.70
2005,07,11,04,48,13.70
2005,07,11,04,49,13.70
2005,07,11,04,50,13.70
2005,07,11,04,51,13.70
2005,07,11,04,52,13.70
2005,07,11,04,53,13.70
2005,07,11,04,54,13.70
2005,07,11,04,55,13.70
2005,07,11,04,56,13.70
2005,07,11,04,57,13.70
2005,07,11,04,58,13.70
2005,07,11,04,59,13.70
2005,07,11,05,00,13.70
2005,07,11,05,01,13.70
2005,07,11,05,02,13.70
2005,07,11,05,03,13.70
2005,07,11,05,04,13.70
2005,07,11,05,05,13.70
2005,07,11,05,06,13.70
2005,07,11,05,07,13.70
2005,07,11,05,08,13.70
2005,07,11,05,09,13.70
2005,07,11,05,10,13.60
2005,07,11,05,11,13.60
2005,07,11,05,12,13.60
2005,07,11,05,13,13.60
2005,07,11,05,14,13.60
2005,07,11,05,15,13.50
2005,07,11,05,16,13.50
2005,07,11,05,17,13.50
2005,07,11,05,18,13.50
2005,07,11,05,19,13.50
2005,07,11,05,20,13.50
2005,07,11,05,21,13.50
2005,07,11,05,22,13.50
2005,07,11,05,23,13.40
2005,07,11,05,24,13.40
2005,07,11,05,25,13.40
2005,07,11,05,26,13.40
2005,07,11,05,27,13.40
2005,07,11,05,28,13.40
2005,07,11,05,29,13.40
2005,07,11,05,30,13.40
2005,07,11,05,31,13.40
2005,07,11,05,32,13.40
2005,07,11,05,33,13.30
2005,07,11,05,34,13.30
2005,07,11,05,35,13.30
2005,07,11,05,36,13.30
2005,07,11,05,37,13.30
2005,07,11,05,38,13.30
2005,07,11,05,39,13.20
2005,07,11,05,40,13.20
2005,07,11,05,41,13.20
2005,07,11,05,42,13.10
2005,07,11,05,43,13.10
2005,07,11,05,44,13.10
2005,07,11,05,45,13.10
2005,07,11,05,46,13.00
2005,07,11,05,47,13.00
2005,07,11,05,48,13.00
2005,07,11,05,49,13.00
2005,07,11,05,50,13.00
2005,07,11,05,51,12.90
2005,07,11,05,52,12.90
2005,07,11,05,53,12.90
2005,07,11,05,54,12.80
2005,07,11,05,55,12.80
2005,07,11,05,56,12.80
2005,07,11,05,57,12.80
2005,07,11,05,58,12.90
2005,07,11,05,59,12.90
2005,07,11,06,00,12.90
2005,07,11,06,01,12.90
2005,07,11,06,02,12.90
2005,07,11,06,03,13.00
2005,07,11,06,04,13.00
2005,07,11,06,05,13.00
2005,07,11,06,06,13.00
2005,07,11,06,07,13.00
2005,07,11,06,08,13.00
2005,07,11,06,09,13.00
2005,07,11,06,10,13.00
2005,07,11,06,11,13.00
2005,07,11,06,12,13.00
2005,07,11,06,13,13.10
2005,07,11,06,14,13.10
2005,07,11,06,15,13.10
2005,07,11,06,16,13.10
2005,07,11,06,17,13.10
2005,07,11,06,18,13.20
2005,07,11,06,19,13.20
2005,07,11,06,20,13.20
2005,07,11,06,21,13.20
2005,07,11,06,22,13.20
2005,07,11,06,23,13.20
2005,07,11,06,24,13.30
2005,07,11,06,25,13.30
2005,07,11,06,26,13.30
2005,07,11,06,27,13.30
2005,07,11,06,28,13.30
2005,07,11,06,29,13.30
2005,07,11,06,30,13.30
2005,07,11,06,31,13.30
2005,07,11,06,32,13.30
2005,07,11,06,33,13.30
2005,07,11,06,34,13.30
2005,07,11,06,35,13.30
2005,07,11,06,36,13.30
2005,07,11,06,37,13.30
2005,07,11,06,38,13.30
2005,07,11,06,39,13.30
2005,07,11,06,40,13.40
2005,07,11,06,41,13.40
2005,07,11,06,42,13.40
2005,07,11,06,43,13.30
2005,07,11,06,44,13.30
2005,07,11,06,45,13.30
2005,07,11,06,46,13.30
2005,07,11,06,47,13.40
2005,07,11,06,48,13.40
2005,07,11,06,49,13.40
2005,07,11,06,50,13.40
2005,07,11,06,51,13.40
2005,07,11,06,52,13.40
2005,07,11,06,53,13.40
2005,07,11,06,54,13.40
2005,07,11,06,55,13.40
2005,07,11,06,56,13.40
2005,07,11,06,57,13.40
2005,07,11,06,58,13.40
2005,07,11,06,59,13.40
2005,07,11,07,00,13.40
2005,07,11,07,01,13.50
2005,07,11,07,02,13.50
2005,07,11,07,03,13.50
2005,07,11,07,04,13.50
2005,07,11,07,05,13.50
2005,07,11,07,06,13.60
2005,07,11,07,07,13.60
2005,07,11,07,08,13.60
2005,07,11,07,09,13.60
2005,07,11,07,10,13.60
2005,07,11,07,11,13.60
2005,07,11,07,12,13.60
2005,07,11,07,13,13.70
2005,07,11,07,14,13.70
2005,07,11,07,15,13.70
2005,07,11,07,16,13.70
2005,07,11,07,17,13.70
2005,07,11,07,18,13.70
2005,07,11,07,19,13.70
2005,07,11,07,20,13.70
2005,07,11,07,21,13.70
2005,07,11,07,22,13.70
2005,07,11,07,23,13.70
2005,07,11,07,24,13.70
2005,07,11,07,25,13.70
2005,07,11,07,26,13.70
2005,07,11,07,27,13.70
2005,07,11,07,28,13.70
2005,07,11,07,29,13.70
2005,07,11,07,30,13.70
2005,07,11,07,31,13.70
2005,07,11,07,32,13.70
2005,07,11,07,33,13.70
2005,07,11,07,34,13.70
2005,07,11,07,35,13.70
2005,07,11,07,36,13.70
2005,07,11,07,37,13.70
2005,07,11,07,38,13.70
2005,07,11,07,39,13.70
2005,07,11,07,40,13.70
2005,07,11,07,41,13.70
2005,07,11,07,42,13.70
2005,07,11,07,43,13.70
2005,07,11,07,44,13.70
2005,07,11,07,45,13.70
2005,07,11,07,46,13.70
2005,07,11,07,47,13.70
2005,07,11,07,48,13.70
2005,07,11,07,49,13.80
2005,07,11,07,50,13.80
2005,07,11,07,51,13.80
2005,07,11,07,52,13.80
2005,07,11,07,53,13.80
2005,07,11,07,54,13.70
2005,07,11,07,55,13.70
2005,07,11,07,56,13.80
2005,07,11,07,57,13.80
2005,07,11,07,58,13.90
2005,07,11,07,59,13.90
2005,07,11,08,00,13.90
2005,07,11,08,01,13.90
2005,07,11,08,02,14.00
2005,07,11,08,03,14.00
2005,07,11,08,04,14.00
2005,07,11,08,05,14.00
2005,07,11,08,06,14.00
2005,07,11,08,07,14.00
2005,07,11,08,08,14.00
2005,07,11,08,09,14.10
2005,07,11,08,10,14.10
2005,07,11,08,11,14.20
2005,07,11,08,12,14.20
2005,07,11,08,13,14.20
2005,07,11,08,14,14.30
2005,07,11,08,15,14.50
2005,07,11,08,16,14.60
2005,07,11,08,17,14.60
2005,07,11,08,18,14.70
2005,07,11,08,19,14.60
2005,07,11,08,20,14.60
2005,07,11,08,21,14.60
2005,07,11,08,22,14.60
2005,07,11,08,23,14.60
2005,07,11,08,24,14.60
2005,07,11,08,25,14.60
2005,07,11,08,26,14.70
2005,07,11,08,27,14.70
2005,07,11,08,28,14.80
2005,07,11,08,29,14.90
2005,07,11,08,30,14.90
2005,07,11,08,31,15.00
2005,07,11,08,32,15.00
2005,07,11,08,33,15.10
2005,07,11,08,34,15.10
2005,07,11,08,35,15.10
2005,07,11,08,36,15.10
2005,07,11,08,37,15.20
2005,07,11,08,38,15.30
2005,07,11,08,39,15.30
2005,07,11,08,40,15.30
2005,07,11,08,41,15.30
2005,07,11,08,42,15.30
2005,07,11,08,43,15.30
2005,07,11,08,44,15.30
2005,07,11,08,45,15.40
2005,07,11,08,46,15.40
2005,07,11,08,47,15.40
2005,07,11,08,48,15.50
2005,07,11,08,49,15.50
2005,07,11,08,50,15.50
2005,07,11,08,51,15.50
2005,07,11,08,52,15.50
2005,07,11,08,53,15.50
2005,07,11,08,54,15.40
2005,07,11,08,55,15.30
2005,07,11,08,56,15.20
2005,07,11,08,57,15.10
2005,07,11,08,58,15.10
2005,07,11,08,59,15.10
2005,07,11,09,00,15.00
2005,07,11,09,01,15.00
2005,07,11,09,02,15.00
2005,07,11,09,03,14.90
2005,07,11,09,04,14.90
2005,07,11,09,05,14.80
2005,07,11,09,06,14.80
2005,07,11,09,07,14.80
2005,07,11,09,08,14.70
2005,07,11,09,09,14.70
2005,07,11,09,10,14.70
2005,07,11,09,11,14.60
2005,07,11,09,12,14.60
2005,07,11,09,13,14.60
2005,07,11,09,14,14.60
2005,07,11,09,15,14.70
2005,07,11,09,16,14.70
2005,07,11,09,17,14.80
2005,07,11,09,18,14.80
2005,07,11,09,19,14.80
2005,07,11,09,20,14.90
2005,07,11,09,21,14.90
2005,07,11,09,22,15.00
2005,07,11,09,23,15.00
2005,07,11,09,24,15.00
2005,07,11,09,25,15.00
2005,07,11,09,26,14.90
2005,07,11,09,27,14.90
2005,07,11,09,28,14.90
2005,07,11,09,29,14.90
2005,07,11,09,30,14.90
2005,07,11,09,31,14.80
2005,07,11,09,32,14.80
2005,07,11,09,33,14.80
2005,07,11,09,34,14.80
2005,07,11,09,35,14.80
2005,07,11,09,36,14.90
2005,07,11,09,37,14.90
2005,07,11,09,38,15.00
2005,07,11,09,39,15.00
2005,07,11,09,40,15.10
2005,07,11,09,41,15.20
2005,07,11,09,42,15.30
2005,07,11,09,43,15.30
2005,07,11,09,44,15.40
2005,07,11,09,45,15.50
2005,07,11,09,46,15.60
2005,07,11,09,47,15.70
2005,07,11,09,48,15.70
2005,07,11,09,49,15.80
2005,07,11,09,50,15.80
2005,07,11,09,51,15.70
2005,07,11,09,52,15.70
2005,07,11,09,53,15.70
2005,07,11,09,54,15.60
2005,07,11,09,55,15.50
2005,07,11,09,56,15.40
2005,07,11,09,57,15.40
2005,07,11,09,58,15.50
2005,07,11,09,59,15.50
2005,07,11,10,00,15.60
2005,07,11,10,01,15.60
2005,07,11,10,02,15.70
2005,07,11,10,03,15.80
2005,07,11,10,04,15.80
2005,07,11,10,05,15.80
2005,07,11,10,06,15.80
2005,07,11,10,07,15.80
2005,07,11,10,08,15.80
2005,07,11,10,09,15.70
2005,07,11,10,10,15.70
2005,07,11,10,11,15.70
2005,07,11,10,12,15.80
2005,07,11,10,13,15.80
2005,07,11,10,14,15.80
2005,07,11,10,15,15.90
2005,07,11,10,16,16.00
2005,07,11,10,17,16.10
2005,07,11,10,18,16.20
2005,07,11,10,19,16.30
2005,07,11,10,20,16.40
2005,07,11,10,21,16.40
2005,07,11,10,22,16.30
2005,07,11,10,23,16.30
2005,07,11,10,24,16.30
2005,07,11,10,25,16.30
2005,07,11,10,26,16.20
2005,07,11,10,27,16.10
2005,07,11,10,28,16.10
2005,07,11,10,29,16.00
2005,07,11,10,30,15.90
2005,07,11,10,31,16.00
2005,07,11,10,32,16.10
2005,07,11,10,33,16.10
2005,07,11,10,34,16.10
2005,07,11,10,35,16.10
2005,07,11,10,36,16.10
2005,07,11,10,37,16.10
2005,07,11,10,38,16.10
2005,07,11,10,39,16.10
2005,07,11,10,40,16.00
2005,07,11,10,41,15.90
2005,07,11,10,42,15.80
2005,07,11,10,43,15.90
2005,07,11,10,44,16.00
2005,07,11,10,45,16.20
2005,07,11,10,46,16.30
2005,07,11,10,47,16.30
2005,07,11,10,48,16.40
2005,07,11,10,49,16.50
2005,07,11,10,50,16.60
2005,07,11,10,51,16.70
2005,07,11,10,52,16.60
2005,07,11,10,53,16.60
2005,07,11,10,54,16.60
2005,07,11,10,55,16.60
2005,07,11,10,56,16.70
2005,07,11,10,57,16.70
2005,07,11,10,58,16.80
2005,07,11,10,59,16.90
2005,07,11,11,00,16.90
2005,07,11,11,01,16.90
2005,07,11,11,02,16.70
2005,07,11,11,03,16.50
2005,07,11,11,04,16.30
2005,07,11,11,05,16.30
2005,07,11,11,06,16.30
2005,07,11,11,07,16.20
2005,07,11,11,08,16.20
2005,07,11,11,09,16.20
2005,07,11,11,10,16.10
2005,07,11,11,11,16.10
2005,07,11,11,12,16.00
2005,07,11,11,13,15.90
2005,07,11,11,14,16.00
2005,07,11,11,15,16.00
2005,07,11,11,16,15.90
2005,07,11,11,17,15.90
2005,07,11,11,18,15.90
2005,07,11,11,19,15.80
2005,07,11,11,20,15.80
2005,07,11,11,21,15.90
2005,07,11,11,22,15.90
2005,07,11,11,23,15.90
2005,07,11,11,24,15.80
2005,07,11,11,25,15.80
2005,07,11,11,26,15.80
2005,07,11,11,27,15.90
2005,07,11,11,28,16.10
2005,07,11,11,29,16.10
2005,07,11,11,30,16.10
2005,07,11,11,31,16.20
2005,07,11,11,32,16.30
2005,07,11,11,33,16.30
2005,07,11,11,34,16.30
2005,07,11,11,35,16.20
2005,07,11,11,36,16.10
2005,07,11,11,37,16.10
2005,07,11,11,38,16.10
2005,07,11,11,39,16.10
2005,07,11,11,40,16.10
2005,07,11,11,41,16.10
2005,07,11,11,42,16.10
2005,07,11,11,43,16.10
2005,07,11,11,44,16.10
2005,07,11,11,45,16.10
2005,07,11,11,46,16.10
2005,07,11,11,47,16.10
2005,07,11,11,48,16.10
2005,07,11,11,49,16.30
2005,07,11,11,50,16.40
2005,07,11,11,51,16.50
2005,07,11,11,52,16.50
2005,07,11,11,53,16.40
2005,07,11,11,54,16.40
2005,07,11,11,55,16.40
2005,07,11,11,56,16.60
2005,07,11,11,57,16.60
2005,07,11,11,58,16.70
2005,07,11,11,59,16.70
2005,07,11,12,00,16.70
2005,07,11,12,01,16.70
2005,07,11,12,02,16.70
2005,07,11,12,03,16.70
2005,07,11,12,04,16.80
2005,07,11,12,05,16.90
2005,07,11,12,06,17.00
2005,07,11,12,07,17.00
2005,07,11,12,08,17.10
2005,07,11,12,09,17.30
2005,07,11,12,10,17.30
2005,07,11,12,11,17.30
2005,07,11,12,12,17.30
2005,07,11,12,13,17.20
2005,07,11,12,14,17.20
2005,07,11,12,15,17.20
2005,07,11,12,16,17.20
2005,07,11,12,17,17.20
2005,07,11,12,18,17.30
2005,07,11,12,19,17.30
2005,07,11,12,20,17.30
2005,07,11,12,21,17.30
2005,07,11,12,22,17.30
2005,07,11,12,23,17.30
2005,07,11,12,24,17.30
2005,07,11,12,25,17.30
2005,07,11,12,26,17.30
2005,07,11,12,27,17.30
2005,07,11,12,28,17.30
2005,07,11,12,29,17.30
2005,07,11,12,30,17.20
2005,07,11,12,31,17.10
2005,07,11,12,32,17.10
2005,07,11,12,33,17.10
2005,07,11,12,34,17.20
2005,07,11,12,35,17.10
2005,07,11,12,36,17.10
2005,07,11,12,37,17.00
2005,07,11,12,38,16.90
2005,07,11,12,39,16.80
2005,07,11,12,40,16.90
2005,07,11,12,41,17.00
2005,07,11,12,42,17.10
2005,07,11,12,43,17.10
2005,07,11,12,44,17.10
2005,07,11,12,45,17.00
2005,07,11,12,46,17.00
2005,07,11,12,47,16.90
2005,07,11,12,48,16.70
2005,07,11,12,49,16.70
2005,07,11,12,50,16.70
2005,07,11,12,51,16.60
2005,07,11,12,52,16.50
2005,07,11,12,53,16.40
2005,07,11,12,54,16.40
2005,07,11,12,55,16.40
2005,07,11,12,56,16.30
2005,07,11,12,57,16.30
2005,07,11,12,58,16.30
2005,07,11,12,59,16.20
2005,07,11,13,00,16.30
2005,07,11,13,01,16.40
2005,07,11,13,02,16.30
2005,07,11,13,03,16.30
2005,07,11,13,04,16.20
2005,07,11,13,05,16.20
2005,07,11,13,06,16.20
2005,07,11,13,07,16.30
2005,07,11,13,08,16.20
2005,07,11,13,09,16.30
2005,07,11,13,10,16.30
2005,07,11,13,11,16.40
2005,07,11,13,12,16.40
2005,07,11,13,13,16.40
2005,07,11,13,14,16.40
2005,07,11,13,15,16.50
2005,07,11,13,16,16.60
2005,07,11,13,17,16.70
2005,07,11,13,18,16.90
2005,07,11,13,19,17.00
2005,07,11,13,20,17.20
2005,07,11,13,21,17.40
2005,07,11,13,22,17.60
2005,07,11,13,23,17.70
2005,07,11,13,24,17.90
2005,07,11,13,25,18.00
2005,07,11,13,26,18.10
2005,07,11,13,27,18.20
2005,07,11,13,28,18.30
2005,07,11,13,29,18.30
2005,07,11,13,30,18.30
2005,07,11,13,31,18.30
2005,07,11,13,32,18.30
2005,07,11,13,33,18.20
2005,07,11,13,34,18.20
2005,07,11,13,35,18.20
2005,07,11,13,36,18.20
2005,07,11,13,37,18.20
2005,07,11,13,38,18.30
2005,07,11,13,39,18.40
2005,07,11,13,40,18.50
2005,07,11,13,41,18.50
2005,07,11,13,42,18.40
2005,07,11,13,43,18.40
2005,07,11,13,44,18.40
2005,07,11,13,45,18.30
2005,07,11,13,46,18.20
2005,07,11,13,47,18.10
2005,07,11,13,48,18.10
2005,07,11,13,49,18.10
2005,07,11,13,50,18.10
2005,07,11,13,51,18.20
2005,07,11,13,52,18.20
2005,07,11,13,53,18.30
2005,07,11,13,54,18.40
2005,07,11,13,55,18.50
2005,07,11,13,56,18.50
2005,07,11,13,57,18.50
2005,07,11,13,58,18.50
2005,07,11,13,59,18.70
2005,07,11,14,00,18.60
2005,07,11,14,01,18.60
2005,07,11,14,02,18.50
2005,07,11,14,03,18.50
2005,07,11,14,04,18.50
2005,07,11,14,05,18.50
2005,07,11,14,06,18.40
2005,07,11,14,07,18.30
2005,07,11,14,08,18.30
2005,07,11,14,09,18.20
2005,07,11,14,10,18.20
2005,07,11,14,11,18.20
2005,07,11,14,12,18.30
2005,07,11,14,13,18.40
2005,07,11,14,14,18.50
2005,07,11,14,15,18.50
2005,07,11,14,16,18.50
2005,07,11,14,17,18.50
2005,07,11,14,18,18.80
2005,07,11,14,19,18.90
2005,07,11,14,20,18.90
2005,07,11,14,21,19.00
2005,07,11,14,22,19.10
2005,07,11,14,23,19.00
2005,07,11,14,24,18.90
2005,07,11,14,25,18.90
2005,07,11,14,26,18.90
2005,07,11,14,27,18.90
2005,07,11,14,28,18.90
2005,07,11,14,29,19.00
2005,07,11,14,30,19.10
2005,07,11,14,31,19.10
2005,07,11,14,32,19.10
2005,07,11,14,33,19.10
2005,07,11,14,34,19.10
2005,07,11,14,35,19.10
2005,07,11,14,36,19.10
2005,07,11,14,37,19.10
2005,07,11,14,38,19.10
2005,07,11,14,39,19.20
2005,07,11,14,40,19.30
2005,07,11,14,41,19.50
2005,07,11,14,42,19.60
2005,07,11,14,43,19.80
2005,07,11,14,44,19.90
2005,07,11,14,45,19.90
2005,07,11,14,46,19.90
2005,07,11,14,47,20.00
2005,07,11,14,48,20.10
2005,07,11,14,49,20.10
2005,07,11,14,50,20.10
2005,07,11,14,51,20.10
2005,07,11,14,52,20.10
2005,07,11,14,53,20.20
2005,07,11,14,54,20.20
2005,07,11,14,55,20.20
2005,07,11,14,56,20.20
2005,07,11,14,57,20.20
2005,07,11,14,58,20.20
2005,07,11,14,59,20.10
2005,07,11,15,00,20.20
2005,07,11,15,01,20.20
2005,07,11,15,02,20.20
2005,07,11,15,03,20.20
2005,07,11,15,04,20.20
2005,07,11,15,05,20.10
2005,07,11,15,06,20.10
2005,07,11,15,07,20.10
2005,07,11,15,08,20.10
2005,07,11,15,09,20.00
2005,07,11,15,10,19.90
2005,07,11,15,11,20.00
2005,07,11,15,12,20.10
2005,07,11,15,13,20.10
2005,07,11,15,14,20.20
2005,07,11,15,15,20.20
2005,07,11,15,16,20.30
2005,07,11,15,17,20.30
2005,07,11,15,18,20.30
2005,07,11,15,19,20.30
2005,07,11,15,20,20.30
2005,07,11,15,21,20.20
2005,07,11,15,22,20.20
2005,07,11,15,23,20.20
2005,07,11,15,24,20.20
2005,07,11,15,25,20.20
2005,07,11,15,26,20.20
2005,07,11,15,27,20.20
2005,07,11,15,28,20.20
2005,07,11,15,29,20.20
2005,07,11,15,30,20.20
2005,07,11,15,31,20.20
2005,07,11,15,32,20.20
2005,07,11,15,33,20.20
2005,07,11,15,34,20.10
2005,07,11,15,35,20.10
2005,07,11,15,36,20.00
2005,07,11,15,37,19.90
2005,07,11,15,38,20.00
2005,07,11,15,39,20.00
2005,07,11,15,40,19.90
2005,07,11,15,41,19.90
2005,07,11,15,42,19.90
2005,07,11,15,43,19.90
2005,07,11,15,44,19.90
2005,07,11,15,45,19.90
2005,07,11,15,46,19.90
2005,07,11,15,47,19.90
2005,07,11,15,48,19.90
2005,07,11,15,49,19.90
2005,07,11,15,50,19.90
2005,07,11,15,51,19.90
2005,07,11,15,52,19.90
2005,07,11,15,53,19.90
2005,07,11,15,54,19.90
2005,07,11,15,55,19.90
2005,07,11,15,56,19.90
2005,07,11,15,57,19.90
2005,07,11,15,58,19.90
2005,07,11,15,59,19.90
2005,07,11,16,00,19.90
2005,07,11,16,01,19.90
2005,07,11,16,02,19.90
2005,07,11,16,03,19.90
2005,07,11,16,04,19.90
2005,07,11,16,05,19.90
2005,07,11,16,06,19.90
2005,07,11,16,07,19.80
2005,07,11,16,08,19.60
2005,07,11,16,09,19.60
2005,07,11,16,10,19.50
2005,07,11,16,11,19.50
2005,07,11,16,12,19.40
2005,07,11,16,13,19.40
2005,07,11,16,14,19.40
2005,07,11,16,15,19.30
2005,07,11,16,16,19.40
2005,07,11,16,17,19.40
2005,07,11,16,18,19.30
2005,07,11,16,19,19.40
2005,07,11,16,20,19.40
2005,07,11,16,21,19.50
2005,07,11,16,22,19.60
2005,07,11,16,23,19.60
2005,07,11,16,24,19.70
2005,07,11,16,25,19.70
2005,07,11,16,26,19.80
2005,07,11,16,27,19.80
2005,07,11,16,28,19.90
2005,07,11,16,29,19.90
2005,07,11,16,30,19.90
2005,07,11,16,31,19.90
2005,07,11,16,32,20.00
2005,07,11,16,33,20.20
2005,07,11,16,34,20.10
2005,07,11,16,35,20.10
2005,07,11,16,36,20.00
2005,07,11,16,37,19.90
2005,07,11,16,38,20.00
2005,07,11,16,39,20.10
2005,07,11,16,40,20.10
2005,07,11,16,41,20.10
2005,07,11,16,42,20.20
2005,07,11,16,43,20.20
2005,07,11,16,44,20.20
2005,07,11,16,45,20.20
2005,07,11,16,46,20.30
2005,07,11,16,47,20.30
2005,07,11,16,48,20.30
2005,07,11,16,49,20.40
2005,07,11,16,50,20.40
2005,07,11,16,51,20.40
2005,07,11,16,52,20.40
2005,07,11,16,53,20.40
2005,07,11,16,54,20.50
2005,07,11,16,55,20.60
2005,07,11,16,56,20.70
2005,07,11,16,57,20.70
2005,07,11,16,58,20.80
2005,07,11,16,59,20.80
2005,07,11,17,00,20.80
2005,07,11,17,01,20.70
2005,07,11,17,02,20.70
2005,07,11,17,03,20.60
2005,07,11,17,04,20.60
2005,07,11,17,05,20.60
2005,07,11,17,06,20.60
2005,07,11,17,07,20.60
2005,07,11,17,08,20.50
2005,07,11,17,09,20.50
2005,07,11,17,10,20.50
2005,07,11,17,11,20.50
2005,07,11,17,12,20.40
2005,07,11,17,13,20.30
2005,07,11,17,14,20.30
2005,07,11,17,15,20.20
2005,07,11,17,16,20.20
2005,07,11,17,17,20.20
2005,07,11,17,18,20.20
2005,07,11,17,19,20.20